Location: Ottawa (KS)
(38.6160°N, 95.2680°W)
Time: 04:26:59
(UTC-05:00)

Tiangong 2 - Visible Passes

Search period start: 22 October 2018 00:00
Search period end: 01 November 2018 00:00
Orbit: 384 x 392 km, 42.8° (Epoch: 22 October)

Date Brightness Start Highest point End Pass type
(mag) Time Alt. Az. Time Alt. Az. Time Alt. Az.
26 Oct 3.3 20:17:35 10° SW 20:18:45 19° SSW 20:18:45 19° SSW visible
27 Oct 2.9 19:19:57 10° S 19:22:12 18° SE 19:23:23 15° ESE visible
27 Oct 4.6 20:55:35 10° WSW 20:55:41 11° WSW 20:55:41 11° WSW visible
28 Oct 1.2 19:57:14 10° SW 20:00:13 59° S 20:00:13 59° S visible
29 Oct 2.1 18:59:08 10° SW 19:02:02 34° SSE 19:04:40 12° E visible
29 Oct 3.7 20:35:40 10° W 20:36:58 22° W 20:36:58 22° W visible
30 Oct 1.0 19:37:10 10° WSW 19:40:20 79° NNW 19:41:21 39° ENE visible
31 Oct 2.7 20:15:49 10° W 20:17:57 32° NW 20:17:57 32° NW visible
